Regional Weather Roundup
Issued by NWS

Current Version | Previous Version | Text Only | Print | Product List | Glossary On
Versions: 1 2 3 4 5 6 7 8 9 10 11 12 13 14 15 16 17 18 19 20 21 22 23 24 25 26 27 28 29 30 31 32 33 34 35 36 37 38 39 40 41 42 43 44 45 46 47 48 49 50
000
ASUS46 KPQR 031310
RWROR

OREGON REGIONAL WEATHER ROUNDUP
NATIONAL WEATHER SERVICE PORTLAND OR
600 AM PDT THU SEP 03 2015

NOTE: "FAIR" INDICATES FEW OR NO CLOUDS BELOW 12,000 FEET WITH
NO SIGNIFICANT WEATHER AND/OR OBSTRUCTIONS TO VISIBILITY.

ORZ001>013-031400-
NORTHWEST OREGON


CITY           SKY/WX    TMP DP  RH WIND       PRES   REMARKS
ASTORIA        CLEAR     46  45  96 SE5       30.01R
NEWPORT        CLEAR     48  48 100 E3        30.05S
PORTLAND       PTCLDY    52  49  89 CALM      30.03R
VANCOUVER WA   CLEAR     50  46  86 CALM      30.02S
SCAPPOOSE      PTCLDY    44  42  93 CALM      30.02S
HILLSBORO      CLEAR     43  42  97 CALM      30.02S
AURORA         CLEAR     50  48  93 CALM      30.03S
MCMINNVILLE    CLEAR     48  45  89 CALM      30.03S
SALEM          CLEAR     52  48  86 CALM      30.02S
CORVALLIS      MOCLDY    46  45  93 CALM      30.04S
EUGENE         PTCLDY    46  44  93 S5        30.04S
$$

ORZ021-028-031400-
SOUTHWEST OREGON


CITY           SKY/WX    TMP DP  RH WIND       PRES   REMARKS
NORTH BEND     PTCLDY    52  52 100 SE6       30.05S
BROOKINGS      CLEAR     52  50  93 CALM      30.00R
ROSEBURG       MOCLDY    52  48  86 CALM      30.04S
SEXTON SUMMIT  RAIN      41  40  96 N12       30.01S
MEDFORD        PTCLDY    53  43  68 N6        30.02R
$$

ORZ014>016-041-031400-
COLUMBIA GORGE


CITY           SKY/WX    TMP DP  RH WIND       PRES   REMARKS
TROUTDALE      CLEAR     49  47  93 CALM      30.03R FOG
THE DALLES     CLEAR     51  44  77 SW5       30.00R
$$

ORZ029>031-041-044-049-050-061>064-502-503-505>511-031400-
EASTERN OREGON


CITY           SKY/WX    TMP DP  RH WIND       PRES   REMARKS
REDMOND        MOCLDY    42  36  79 S3        30.00S
BEND           MOCLDY    45  36  70 CALM      30.01S
PRINEVILLE     CLEAR     43  37  81 SW5       30.00S
KLAMATH FALLS  CLOUDY    50  36  58 NW13      29.98S
LAKEVIEW       CLOUDY    45  39  81 N13         N/A
HERMISTON      CLEAR     49  42  77 S7        29.96R
PENDLETON      CLOUDY    52  40  63 W8        29.97R
JOHN DAY       CLOUDY    49  41  73 W5        29.99R
MEACHAM        PTCLDY    37  34  89 CALM      29.99R
LA GRANDE      PTCLDY    48  32  53 N9        29.96S
BAKER CITY     MOCLDY    45  39  79 N7        29.96R
BURNS          CLOUDY    47  42  83 W8        29.98R
ROME             N/A     52  38  58 NE10      29.93S
ONTARIO        MOCLDY    57  41  55 NW18      29.91R
$$



USA.gov is the U.S. government's official web portal to all federal, state and local government web resources and services.